Hourly Weather Poprad

Today, 26 October, Monday

Time Temperature Precipitation Wind Pressure Humidity
00:00 +10°C° 0 mm 1 mps 698 mmHg 97%
01:00 +10°C° 0 mm 1 mps 698 mmHg 97%
02:00 +10°C° 0 mm 1 mps 697 mmHg 97%
03:00 +10°C° 0 mm 1 mps 697 mmHg 97%
04:00 +10°C° 0 mm 1 mps 697 mmHg 97%
05:00 +9°C° 0.1 mm 2 mps 697 mmHg 97%
06:00 +9°C° 0.1 mm 2 mps 697 mmHg 97%
07:00 +9°C° 0.1 mm 2 mps 697 mmHg 97%
08:00 +10°C° 0.1 mm 2 mps 697 mmHg 94%
09:00 +11°C° 0.1 mm 3 mps 697 mmHg 92%
10:00 +11°C° 0.1 mm 3 mps 697 mmHg 89%
11:00 +11°C° 0.1 mm 3 mps 696 mmHg 88%
12:00 +11°C° 0.1 mm 3 mps 696 mmHg 87%
13:00 +11°C° 0.1 mm 3 mps 696 mmHg 86%
14:00 +11°C° 0.2 mm 3 mps 696 mmHg 89%
15:00 +11°C° 0.2 mm 3 mps 696 mmHg 92%
16:00 +10°C° 0.2 mm 2 mps 696 mmHg 94%
17:00 +10°C° 0.1 mm 2 mps 696 mmHg 95%
18:00 +10°C° 0.1 mm 2 mps 696 mmHg 95%
19:00 +10°C° 0.1 mm 2 mps 696 mmHg 96%
20:00 +10°C° 0 mm 2 mps 697 mmHg 96%
21:00 +10°C° 0 mm 2 mps 697 mmHg 96%
22:00 +10°C° 0 mm 2 mps 697 mmHg 95%
23:00 +10°C° 0 mm 2 mps 697 mmHg 96%

Tomorrow, 27 October, Tuesday

Time Temperature Precipitation Wind Pressure Humidity
00:00 +10°C° 0 mm 2 mps 697 mmHg 96%
01:00 +9°C° 0 mm 2 mps 697 mmHg 96%
02:00 +9°C° 0 mm 2 mps 697 mmHg 96%
03:00 +9°C° 0 mm 2 mps 697 mmHg 96%
04:00 +9°C° 0 mm 2 mps 697 mmHg 96%
05:00 +9°C° 0 mm 2 mps 697 mmHg 96%
06:00 +9°C° 0 mm 2 mps 697 mmHg 96%
07:00 +8°C° 0 mm 2 mps 697 mmHg 96%
08:00 +10°C° 0 mm 2 mps 697 mmHg 92%
09:00 +12°C° 0 mm 2 mps 698 mmHg 87%
10:00 +13°C° 0 mm 2 mps 698 mmHg 83%
11:00 +14°C° 0 mm 2 mps 698 mmHg 79%
12:00 +14°C° 0 mm 2 mps 698 mmHg 75%
13:00 +15°C° 0 mm 2 mps 698 mmHg 72%
14:00 +14°C° 0 mm 2 mps 697 mmHg 77%
15:00 +13°C° 0 mm 2 mps 697 mmHg 83%
16:00 +12°C° 0 mm 1 mps 697 mmHg 89%
17:00 +11°C° 0 mm 1 mps 697 mmHg 90%
18:00 +11°C° 0 mm 1 mps 697 mmHg 92%
19:00 +10°C° 0 mm 1 mps 698 mmHg 93%
20:00 +10°C° 0 mm 1 mps 698 mmHg 93%
21:00 +10°C° 0 mm 1 mps 698 mmHg 93%
22:00 +10°C° 0 mm 1 mps 698 mmHg 92%
23:00 +9°C° 0 mm 1 mps 698 mmHg 92%

Day after tomorrow, 28 October, Wednesday

Time Temperature Precipitation Wind Pressure Humidity
00:00 +9°C° 0 mm 1 mps 698 mmHg 91%
01:00 +9°C° 0 mm 1 mps 698 mmHg 91%
02:00 +9°C° 0 mm 1 mps 698 mmHg 90%
03:00 +8°C° 0 mm 0 mps 698 mmHg 90%
04:00 +8°C° 0 mm 0 mps 698 mmHg 89%
05:00 +8°C° 0 mm 0 mps 699 mmHg 89%
06:00 +8°C° 0 mm 0 mps 699 mmHg 88%
07:00 +8°C° 0 mm 0 mps 699 mmHg 88%
08:00 +11°C° 0 mm 1 mps 700 mmHg 82%
09:00 +13°C° 0 mm 1 mps 700 mmHg 77%
10:00 +14°C° 0 mm 1 mps 700 mmHg 72%
11:00 +15°C° 0 mm 1 mps 700 mmHg 70%
12:00 +15°C° 0 mm 1 mps 700 mmHg 68%
13:00 +16°C° 0 mm 1 mps 700 mmHg 66%
14:00 +15°C° 0 mm 1 mps 700 mmHg 73%
15:00 +13°C° 0 mm 1 mps 700 mmHg 80%
16:00 +12°C° 0 mm 1 mps 699 mmHg 87%
17:00 +11°C° 0 mm 1 mps 699 mmHg 89%
18:00 +11°C° 0 mm 1 mps 700 mmHg 91%
19:00 +10°C° 0 mm 1 mps 700 mmHg 93%
20:00 +10°C° 0 mm 1 mps 700 mmHg 92%
21:00 +9°C° 0 mm 1 mps 700 mmHg 92%
22:00 +9°C° 0 mm 1 mps 700 mmHg 92%
23:00 +9°C° 0 mm 1 mps 700 mmHg 92%

29 October, Thursday

Time Temperature Precipitation Wind Pressure Humidity
00:00 +9°C° 0 mm 1 mps 700 mmHg 91%
01:00 +9°C° 0 mm 1 mps 700 mmHg 91%
02:00 +8°C° 0 mm 1 mps 700 mmHg 91%
03:00 +8°C° 0 mm 1 mps 700 mmHg 91%
04:00 +8°C° 0 mm 1 mps 700 mmHg 91%
05:00 +7°C° 0 mm 0 mps 700 mmHg 90%
06:00 +7°C° 0 mm 0 mps 701 mmHg 89%
07:00 +7°C° 0 mm 0 mps 701 mmHg 88%
08:00 +9°C° 0 mm 0 mps 701 mmHg 82%
09:00 +11°C° 0 mm 0 mps 702 mmHg 76%
10:00 +12°C° 0 mm 0 mps 702 mmHg 70%
11:00 +13°C° 0 mm 0 mps 702 mmHg 67%
12:00 +13°C° 0 mm 0 mps 703 mmHg 64%
13:00 +15°C° 0 mm 1 mps 703 mmHg 61%
14:00 +13°C° 0 mm 0 mps 703 mmHg 68%
15:00 +11°C° 0 mm 0 mps 702 mmHg 74%
16:00 +10°C° 0 mm 0 mps 702 mmHg 81%
17:00 +9°C° 0 mm 0 mps 703 mmHg 83%
18:00 +9°C° 0 mm 0 mps 703 mmHg 86%
19:00 +9°C° 0 mm 1 mps 703 mmHg 88%
20:00 +9°C° 0 mm 1 mps 703 mmHg 89%
21:00 +9°C° 0 mm 1 mps 704 mmHg 89%
22:00 +8°C° 0 mm 1 mps 704 mmHg 89%
23:00 +8°C° 0 mm 1 mps 704 mmHg 89%

30 October, Friday

Time Temperature Precipitation Wind Pressure Humidity
00:00 +8°C° 0 mm 1 mps 704 mmHg 89%
01:00 +8°C° 0 mm 1 mps 704 mmHg 89%
02:00 +7°C° 0 mm 1 mps 704 mmHg 89%
03:00 +7°C° 0 mm 1 mps 704 mmHg 88%
04:00 +7°C° 0 mm 1 mps 705 mmHg 88%
05:00 +7°C° 0 mm 1 mps 705 mmHg 87%
06:00 +7°C° 0 mm 1 mps 705 mmHg 85%
07:00 +7°C° 0 mm 1 mps 705 mmHg 84%
08:00 +9°C° 0 mm 1 mps 705 mmHg 78%
09:00 +11°C° 0 mm 1 mps 706 mmHg 72%
10:00 +12°C° 0 mm 1 mps 706 mmHg 66%
11:00 +13°C° 0 mm 1 mps 706 mmHg 65%
12:00 +14°C° 0 mm 1 mps 706 mmHg 64%
13:00 +14°C° 0 mm 1 mps 707 mmHg 62%
14:00 +13°C° 0 mm 1 mps 706 mmHg 69%
15:00 +12°C° 0 mm 1 mps 706 mmHg 75%
16:00 +11°C° 0 mm 1 mps 706 mmHg 81%
17:00 +10°C° 0 mm 1 mps 706 mmHg 84%
18:00 +10°C° 0 mm 1 mps 706 mmHg 86%
19:00 +9°C° 0 mm 1 mps 706 mmHg 88%
20:00 +9°C° 0 mm 1 mps 706 mmHg 88%
21:00 +9°C° 0 mm 1 mps 706 mmHg 87%
22:00 +9°C° 0 mm 1 mps 706 mmHg 86%
23:00 +9°C° 0 mm 1 mps 706 mmHg 85%

31 October, Saturday

Time Temperature Precipitation Wind Pressure Humidity
00:00 +8°C° 0 mm 1 mps 706 mmHg 84%
01:00 +8°C° 0 mm 1 mps 706 mmHg 83%
02:00 +8°C° 0 mm 1 mps 706 mmHg 82%
03:00 +8°C° 0 mm 1 mps 706 mmHg 81%
04:00 +8°C° 0 mm 1 mps 706 mmHg 80%
05:00 +8°C° 0 mm 1 mps 706 mmHg 80%
06:00 +8°C° 0 mm 1 mps 705 mmHg 79%
07:00 +8°C° 0 mm 1 mps 705 mmHg 79%
Show more

We Need Your Consent

Meteoprog and our Service Providers may store and access personal data such as cookies, device identifiers or other similar technologies on your device and process such data to personalise content and ads, as well as provide social media features and to analyse the traffic.

  • Store and/or access information on your device

    Cookies, device identifiers or other information can be stored or accessed on your device for the purposes indicated above.

  • Personalised ads and content, ad and content measurement, audience insights, and products development

    Ads and content can be personalised based on a profile. More data can be added to better personalise ads and content. Ad and content performance can be measured. Insights about the audience who saw the ads and content can be derived. Such data can be used to develop or improve user’s experience, systems and software.

By clicking ‘I Agree’ you will allow the use of indicated cookies, device identifiers, web beacons or other similar technologies. Your settings can be changed in the browser on your device.

For certain purposes, legitimate interests may be relied on, rather than consent. You can read more about this in our Privacy and Cookie Policy.